Time,TemperatureF,DewpointF,PressureIn,WindDirection,WindDirectionDegrees,WindSpeedMPH,WindSpeedGustMPH,Humidity,HourlyPrecipIn,Conditions,Clouds,dailyrainin,SolarRadiationWatts/m^2,SoftwareType,DateUTC
2013-02-16 00:07:00,35.1,28.0,29.95,NNW,348,4.0,8.0,76,0.00,,,0.00,0,weatherlink.com 1.10,2013-02-16 05:07:00,
2013-02-16 00:24:00,34.2,29.0,29.95,NNE,19,2.0,11.0,80,0.00,,,0.00,0,weatherlink.com 1.10,2013-02-16 05:24:00,
2013-02-16 00:40:00,33.3,29.0,29.95,North,355,4.0,11.0,84,0.00,,,0.00,0,weatherlink.com 1.10,2013-02-16 05:40:00,
2013-02-16 00:56:00,32.6,29.0,29.94,NNW,345,4.0,10.0,86,0.00,,,0.00,0,weatherlink.com 1.10,2013-02-16 05:56:00,
2013-02-16 01:13:00,31.9,29.0,29.95,North,355,5.0,12.0,89,0.00,,,0.00,0,weatherlink.com 1.10,2013-02-16 06:13:00,
2013-02-16 01:30:00,31.3,29.0,29.96,NNW,327,6.0,10.0,90,0.00,,,0.00,0,weatherlink.com 1.10,2013-02-16 06:30:00,
2013-02-16 01:46:00,30.7,29.0,29.96,NW,309,2.0,9.0,92,0.00,,,0.00,0,weatherlink.com 1.10,2013-02-16 06:46:00,
2013-02-16 02:02:00,30.4,29.0,29.96,NNW,345,2.0,8.0,93,0.00,,,0.00,0,weatherlink.com 1.10,2013-02-16 07:02:00,
2013-02-16 02:18:00,30.0,28.0,29.96,NNE,15,3.0,12.0,93,0.00,,,0.00,0,weatherlink.com 1.10,2013-02-16 07:18:00,
2013-02-16 02:35:00,29.9,28.0,29.95,NNE,19,3.0,6.0,94,0.00,,,0.00,0,weatherlink.com 1.10,2013-02-16 07:35:00,
2013-02-16 02:52:00,29.7,28.0,29.95,NNE,27,1.0,5.0,94,0.00,,,0.00,0,weatherlink.com 1.10,2013-02-16 07:52:00,
2013-02-16 03:08:00,29.6,28.0,29.94,ENE,69,1.0,4.0,94,0.00,,,0.00,0,weatherlink.com 1.10,2013-02-16 08:08:00,
2013-02-16 03:25:00,29.4,28.0,29.93,NE,34,0.0,5.0,94,0.00,,,0.00,0,weatherlink.com 1.10,2013-02-16 08:25:00,
2013-02-16 03:41:00,29.2,28.0,29.94,North,360,1.0,3.0,94,0.00,,,0.00,0,weatherlink.com 1.10,2013-02-16 08:41:00,
2013-02-16 03:57:00,29.2,28.0,29.94,NNE,25,0.0,2.0,94,0.00,,,0.00,0,weatherlink.com 1.10,2013-02-16 08:57:00,
2013-02-16 04:14:00,29.2,28.0,29.93,NE,42,0.0,3.0,94,0.00,,,0.00,0,weatherlink.com 1.10,2013-02-16 09:14:00,
2013-02-16 04:31:00,29.0,28.0,29.93,North,5,0.0,3.0,95,0.00,,,0.00,0,weatherlink.com 1.10,2013-02-16 09:31:00,
2013-02-16 04:46:00,28.9,27.0,29.93,North,5,0.0,1.0,94,0.00,,,0.00,0,weatherlink.com 1.10,2013-02-16 09:46:00,
2013-02-16 05:03:00,28.7,27.0,29.93,NNE,17,0.0,2.0,94,0.00,,,0.00,0,weatherlink.com 1.10,2013-02-16 10:03:00,
2013-02-16 05:20:00,28.5,27.0,29.93,NE,55,0.0,2.0,94,0.00,,,0.00,0,weatherlink.com 1.10,2013-02-16 10:20:00,
2013-02-16 05:36:00,28.2,27.0,29.92,NNE,31,0.0,1.0,94,0.00,,,0.00,0,weatherlink.com 1.10,2013-02-16 10:36:00,
2013-02-16 05:52:00,27.9,26.0,29.93,NNE,28,0.0,3.0,93,0.00,,,0.00,0,weatherlink.com 1.10,2013-02-16 10:52:00,
2013-02-16 06:09:00,27.7,26.0,29.93,NNW,333,0.0,3.0,92,0.00,,,0.00,0,weatherlink.com 1.10,2013-02-16 11:09:00,
2013-02-16 06:26:00,27.6,26.0,29.94,North,355,2.0,3.0,92,0.00,,,0.00,0,weatherlink.com 1.10,2013-02-16 11:26:00,
2013-02-16 06:42:00,27.5,25.0,29.94,North,5,0.0,5.0,91,0.00,,,0.00,0,weatherlink.com 1.10,2013-02-16 11:42:00,
2013-02-16 06:58:00,27.2,25.0,29.95,NNW,340,2.0,5.0,92,0.00,,,0.00,0,weatherlink.com 1.10,2013-02-16 11:58:00,
2013-02-16 07:14:00,27.1,25.0,29.95,NNW,345,0.0,6.0,93,0.00,,,0.00,7,weatherlink.com 1.10,2013-02-16 12:14:00,
2013-02-16 07:31:00,27.1,25.0,29.95,North,349,3.0,6.0,93,0.00,,,0.00,11,weatherlink.com 1.10,2013-02-16 12:31:00,
2013-02-16 07:47:00,27.2,26.0,29.94,NNE,26,2.0,4.0,93,0.00,,,0.00,25,weatherlink.com 1.10,2013-02-16 12:47:00,
2013-02-16 08:04:00,27.6,26.0,29.93,NE,43,4.0,5.0,92,0.00,,,0.00,26,weatherlink.com 1.10,2013-02-16 13:04:00,
2013-02-16 08:20:00,28.1,26.0,29.94,NNE,12,1.0,5.0,90,0.00,,,0.00,30,weatherlink.com 1.10,2013-02-16 13:20:00,
2013-02-16 08:37:00,28.7,25.0,29.94,NW,309,4.0,6.0,86,0.00,,,0.00,51,weatherlink.com 1.10,2013-02-16 13:37:00,
2013-02-16 08:54:00,28.8,25.0,29.94,WNW,294,4.0,8.0,84,0.00,,,0.00,62,weatherlink.com 1.10,2013-02-16 13:54:00,
2013-02-16 09:10:00,29.0,24.0,29.94,North,349,7.0,10.0,82,0.00,,,0.00,53,weatherlink.com 1.10,2013-02-16 14:10:00,
2013-02-16 09:27:00,28.5,22.0,29.94,North,360,4.0,9.0,78,0.00,,,0.00,42,weatherlink.com 1.10,2013-02-16 14:27:00,
2013-02-16 09:43:00,28.7,22.0,29.94,NNW,333,12.0,13.0,75,0.00,,,0.00,79,weatherlink.com 1.10,2013-02-16 14:43:00,
2013-02-16 09:59:00,28.4,21.0,29.93,NNW,341,4.0,10.0,73,0.00,,,0.00,67,weatherlink.com 1.10,2013-02-16 14:59:00,
2013-02-16 10:17:00,29.2,22.0,29.94,NW,324,4.0,8.0,73,0.00,,,0.00,105,weatherlink.com 1.10,2013-02-16 15:17:00,
2013-02-16 10:33:00,29.2,21.0,29.92,NNE,13,6.0,12.0,70,0.00,,,0.00,158,weatherlink.com 1.10,2013-02-16 15:33:00,
2013-02-16 10:49:00,29.4,20.0,29.92,NNW,340,8.0,13.0,67,0.00,,,0.00,206,weatherlink.com 1.10,2013-02-16 15:49:00,
2013-02-16 11:05:00,30.5,21.0,29.92,NNW,333,4.0,12.0,67,0.01,,,0.01,513,weatherlink.com 1.10,2013-02-16 16:05:00,
2013-02-16 11:22:00,31.8,20.0,29.91,NW,310,7.0,8.0,63,0.03,,,0.03,547,weatherlink.com 1.10,2013-02-16 16:22:00,
2013-02-16 11:39:00,31.2,20.0,29.91,WNW,300,7.0,9.0,63,0.05,,,0.05,415,weatherlink.com 1.10,2013-02-16 16:39:00,
2013-02-16 11:55:00,33.3,21.0,29.90,North,350,6.0,9.0,61,0.06,,,0.07,555,weatherlink.com 1.10,2013-02-16 16:55:00,
2013-02-16 12:11:00,32.7,20.0,29.90,NNW,339,6.0,10.0,60,0.06,,,0.08,504,weatherlink.com 1.10,2013-02-16 17:11:00,
2013-02-16 12:28:00,32.3,19.0,29.89,NW,315,6.0,11.0,58,0.05,,,0.09,322,weatherlink.com 1.10,2013-02-16 17:28:00,
2013-02-16 12:44:00,32.8,19.0,29.88,NNE,18,5.0,14.0,56,0.03,,,0.09,550,weatherlink.com 1.10,2013-02-16 17:44:00,
2013-02-16 13:01:00,33.9,19.0,29.88,North,5,3.0,12.0,55,0.03,,,0.10,545,weatherlink.com 1.10,2013-02-16 18:01:00,
2013-02-16 13:17:00,34.8,20.0,29.87,NNE,13,6.0,8.0,55,0.02,,,0.10,497,weatherlink.com 1.10,2013-02-16 18:17:00,
2013-02-16 13:33:00,33.9,18.0,29.87,NW,309,2.0,14.0,53,0.01,,,0.10,490,weatherlink.com 1.10,2013-02-16 18:33:00,
2013-02-16 13:50:00,33.2,18.0,29.86,North,5,6.0,12.0,55,0.01,,,0.10,527,weatherlink.com 1.10,2013-02-16 18:50:00,
2013-02-16 14:07:00,33.4,18.0,29.87,NW,305,4.0,11.0,54,0.00,,,0.10,181,weatherlink.com 1.10,2013-02-16 19:07:00,
2013-02-16 14:39:00,32.5,19.0,29.86,WNW,300,5.0,14.0,58,0.00,,,0.10,202,weatherlink.com 1.10,2013-02-16 19:39:00,
2013-02-16 14:55:00,32.5,19.0,29.86,North,350,2.0,11.0,59,0.00,,,0.10,216,weatherlink.com 1.10,2013-02-16 19:55:00,
2013-02-16 15:12:00,32.6,20.0,29.85,NNE,24,2.0,10.0,61,0.00,,,0.10,216,weatherlink.com 1.10,2013-02-16 20:12:00,
2013-02-16 15:29:00,31.9,18.0,29.84,North,10,1.0,8.0,57,0.00,,,0.10,171,weatherlink.com 1.10,2013-02-16 20:29:00,
2013-02-16 15:45:00,31.2,17.0,29.84,North,11,2.0,8.0,57,0.00,,,0.10,105,weatherlink.com 1.10,2013-02-16 20:45:00,
2013-02-16 16:01:00,30.8,18.0,29.84,North,355,1.0,8.0,59,0.00,,,0.10,105,weatherlink.com 1.10,2013-02-16 21:01:00,
2013-02-16 16:17:00,30.7,18.0,29.85,North,360,4.0,12.0,59,0.00,,,0.10,51,weatherlink.com 1.10,2013-02-16 21:17:00,
2013-02-16 16:35:00,30.2,18.0,29.86,NNW,330,6.0,10.0,60,0.00,,,0.10,37,weatherlink.com 1.10,2013-02-16 21:35:00,
2013-02-16 16:50:00,29.8,18.0,29.86,NNW,329,2.0,9.0,61,0.00,,,0.10,25,weatherlink.com 1.10,2013-02-16 21:50:00,
2013-02-16 17:07:00,29.3,18.0,29.85,NW,308,3.0,10.0,63,0.00,,,0.10,7,weatherlink.com 1.10,2013-02-16 22:07:00,
2013-02-16 17:23:00,28.9,18.0,29.84,NNW,347,3.0,8.0,63,0.00,,,0.10,0,weatherlink.com 1.10,2013-02-16 22:23:00,
2013-02-16 17:40:00,28.7,18.0,29.84,NNW,344,4.0,9.0,64,0.00,,,0.10,0,weatherlink.com 1.10,2013-02-16 22:40:00,
2013-02-16 17:57:00,28.4,18.0,29.84,WNW,303,3.0,10.0,64,0.00,,,0.10,0,weatherlink.com 1.10,2013-02-16 22:57:00,
2013-02-16 18:13:00,28.0,18.0,29.84,NNW,335,2.0,11.0,65,0.00,,,0.10,0,weatherlink.com 1.10,2013-02-16 23:13:00,
2013-02-16 18:29:00,27.7,17.0,29.84,NNW,337,1.0,7.0,65,0.00,,,0.10,0,weatherlink.com 1.10,2013-02-16 23:29:00,
2013-02-16 18:46:00,27.6,17.0,29.83,North,350,3.0,8.0,65,0.00,,,0.10,0,weatherlink.com 1.10,2013-02-16 23:46:00,
2013-02-16 19:03:00,27.5,17.0,29.83,North,9,4.0,8.0,65,0.00,,,0.10,0,weatherlink.com 1.10,2013-02-17 00:03:00,
2013-02-16 19:19:00,27.3,17.0,29.83,WNW,302,5.0,7.0,66,0.00,,,0.10,0,weatherlink.com 1.10,2013-02-17 00:19:00,
2013-02-16 19:35:00,27.2,18.0,29.83,NW,323,3.0,7.0,67,0.00,,,0.10,0,weatherlink.com 1.10,2013-02-17 00:35:00,
2013-02-16 19:52:00,27.1,17.0,29.82,North,5,0.0,8.0,66,0.00,,,0.10,0,weatherlink.com 1.10,2013-02-17 00:52:00,
2013-02-16 20:08:00,27.1,17.0,29.83,North,355,7.0,9.0,66,0.00,,,0.10,0,weatherlink.com 1.10,2013-02-17 01:08:00,
2013-02-16 20:25:00,26.9,18.0,29.82,North,355,2.0,9.0,68,0.00,,,0.10,0,weatherlink.com 1.10,2013-02-17 01:25:00,
2013-02-16 20:40:00,26.5,18.0,29.83,NNW,341,5.0,11.0,71,0.00,,,0.10,0,weatherlink.com 1.10,2013-02-17 01:40:00,
2013-02-16 20:57:00,26.0,19.0,29.82,NNE,15,3.0,12.0,75,0.00,,,0.10,0,weatherlink.com 1.10,2013-02-17 01:57:00,
2013-02-16 21:14:00,25.6,19.0,29.81,North,5,3.0,12.0,77,0.00,,,0.10,0,weatherlink.com 1.10,2013-02-17 02:14:00,
2013-02-16 21:31:00,25.4,20.0,29.80,NW,326,5.0,8.0,79,0.00,,,0.10,0,weatherlink.com 1.10,2013-02-17 02:31:00,
2013-02-16 21:47:00,25.6,19.0,29.80,North,360,1.0,8.0,77,0.00,,,0.10,0,weatherlink.com 1.10,2013-02-17 02:47:00,
2013-02-16 22:04:00,25.7,19.0,29.79,NNE,22,4.0,9.0,76,0.00,,,0.10,0,weatherlink.com 1.10,2013-02-17 03:04:00,
2013-02-16 22:20:00,25.8,19.0,29.78,North,355,6.0,10.0,74,0.00,,,0.10,0,weatherlink.com 1.10,2013-02-17 03:20:00,
2013-02-16 22:36:00,25.9,18.0,29.77,North,5,3.0,5.0,73,0.00,,,0.10,0,weatherlink.com 1.10,2013-02-17 03:36:00,
2013-02-16 22:53:00,26.0,18.0,29.77,NE,44,2.0,9.0,71,0.00,,,0.10,0,weatherlink.com 1.10,2013-02-17 03:53:00,
2013-02-16 23:10:00,25.8,17.0,29.75,North,355,1.0,6.0,70,0.00,,,0.10,0,weatherlink.com 1.10,2013-02-17 04:10:00,
2013-02-16 23:25:00,25.8,17.0,29.75,NW,309,3.0,7.0,69,0.00,,,0.10,0,weatherlink.com 1.10,2013-02-17 04:25:00,
2013-02-16 23:42:00,25.7,17.0,29.73,NNW,329,4.0,8.0,69,0.00,,,0.10,0,weatherlink.com 1.10,2013-02-17 04:42:00,
2013-02-16 23:59:00,25.5,17.0,29.72,North,5,3.0,12.0,69,0.00,,,0.10,0,weatherlink.com 1.10,2013-02-17 04:59:00,